TimeMST,TemperatureF,Dew PointF,Humidity,Sea Level PressureIn,VisibilityMPH,Wind Direction,Wind SpeedMPH,Gust SpeedMPH,PrecipitationIn,Events,Conditions,WindDirDegrees,DateUTC
12:53 AM,-0.0,-6.0,76,30.33,10.0,Calm,Calm,-,N/A,,Clear,0,2013-01-15 07:53:00
1:53 AM,-6.0,-11.0,79,30.36,10.0,NNE,3.5,-,N/A,,Clear,30,2013-01-15 08:53:00
2:53 AM,-6.0,-11.0,79,30.37,10.0,NE,4.6,-,N/A,,Clear,40,2013-01-15 09:53:00
4:53 AM,-8.0,-11.9,83,30.40,10.0,NNE,5.8,-,N/A,,Clear,20,2013-01-15 11:53:00
5:53 AM,-7.1,-11.9,79,30.42,10.0,North,6.9,-,N/A,,Clear,360,2013-01-15 12:53:00
6:53 AM,-8.0,-13.0,79,30.48,10.0,East,3.5,-,N/A,,Clear,80,2013-01-15 13:53:00
7:53 AM,-7.1,-11.9,79,30.50,10.0,Calm,Calm,-,N/A,,Clear,0,2013-01-15 14:53:00
8:53 AM,-0.0,-7.1,72,30.52,10.0,Calm,Calm,-,N/A,,Clear,0,2013-01-15 15:53:00
9:53 AM,3.9,-2.9,73,30.52,10.0,ESE,6.9,-,N/A,,Clear,120,2013-01-15 16:53:00
10:53 AM,8.1,-2.9,61,30.52,10.0,East,3.5,-,N/A,,Clear,100,2013-01-15 17:53:00
11:53 AM,12.9,-2.0,51,30.48,10.0,Calm,Calm,-,N/A,,Clear,0,2013-01-15 18:53:00
12:53 PM,17.1,-2.0,43,30.47,10.0,West,5.8,-,N/A,,Clear,280,2013-01-15 19:53:00
1:53 PM,19.9,-0.0,42,30.48,10.0,West,3.5,-,N/A,,Clear,270,2013-01-15 20:53:00
2:53 PM,23.0,1.0,39,30.46,10.0,Variable,3.5,-,N/A,,Clear,0,2013-01-15 21:53:00
3:53 PM,25.0,1.0,36,30.47,10.0,West,16.1,-,N/A,,Clear,270,2013-01-15 22:53:00
4:53 PM,24.1,1.0,37,30.50,10.0,West,13.8,-,N/A,,Clear,280,2013-01-15 23:53:00
5:53 PM,19.9,-0.0,42,30.52,10.0,West,11.5,-,N/A,,Clear,280,2013-01-16 00:53:00
6:53 PM,19.0,1.0,46,30.56,10.0,WNW,6.9,-,N/A,,Clear,290,2013-01-16 01:53:00
7:53 PM,17.1,1.0,50,30.58,10.0,North,8.1,-,N/A,,Clear,350,2013-01-16 02:53:00
8:53 PM,12.9,-0.0,56,30.57,10.0,NNW,4.6,-,N/A,,Clear,330,2013-01-16 03:53:00
9:53 PM,8.1,-0.9,67,30.60,10.0,North,6.9,-,N/A,,Clear,360,2013-01-16 04:53:00
10:53 PM,6.1,-2.0,69,30.60,10.0,NE,4.6,-,N/A,,Clear,40,2013-01-16 05:53:00
11:53 PM,3.9,-2.9,73,30.60,10.0,NE,4.6,-,N/A,,Clear,50,2013-01-16 06:53:00